Flag for U.S.A. Weather past 2 weeks in Aurora, Colorado, U.S.A.

Now
35 °F

Passing clouds.


Feels Like: 27 °F
Forecast: 20 / 38 °F
Wind: 12 mph from South

Location: Buckley Air Force Base

Current Time: Dec 25, 2014 at 3:10:38 AM

Latest Report: Dec 25, 2014 at 1:58 AM


Visibility: 10 mi

Pressure: 29.34 "Hg

Humidity: 45%

Dew point: 16 °F

Location of AuroraLocation

Historic Weather in Aurora — Graph

°F

Aurora temperature yesterday

Maximum temperature yesterday: 51 °F (at 2:58 PM)
Minimum temperature yesterday: 16 °F (at 12:58 AM)
Average temperature yesterday: 34 °F

Past Weeks' High & Low Weather Summary

 TemperatureHumidityPressure
High66 °F (Dec 12, 2:58 PM)100% (Dec 14, 10:58 AM)30.29 "Hg (Dec 14, 10:58 AM)
Low16 °F (Dec 24, 12:58 AM)9% (Dec 10, 12:58 PM)29.34 "Hg (Dec 25, 1:58 AM)
Average35 °F58%29.95 "Hg
* Reported Dec 10 1:58 AM — Dec 25 1:58 AM, Aurora, Weather by CustomWeather, © 2014

Note: Actual official high and low records may vary slightly from our data, if they occured in-between our weather recording intervals... More about our weather records

Advertising

Aurora weather history for previous 24 hours

 ConditionsComfort  
Time TempWeatherWind HumidityBarometerVisibility
1:58 AM
Dec 25
35 °FPassing clouds.12 mph45%29.34 "Hg10 mi
12:58 AM36 °FPassing clouds.15 mph43%29.36 "Hg10 mi
11:58 PM
Dec 24
36 °FPassing clouds.14 mph44%29.39 "Hg10 mi
10:58 PM35 °FPassing clouds.13 mph47%29.46 "Hg10 mi
9:58 PM38 °FPartly cloudy.12 mph42%29.46 "Hg10 mi
8:58 PM40 °FPartly cloudy.16 mph40%29.50 "Hg10 mi
7:58 PM41 °FMostly cloudy.13 mph40%29.57 "Hg10 mi
6:58 PM43 °FPartly cloudy.9 mph39%29.59 "Hg10 mi
5:58 PM37 °FPartly cloudy.6 mph51%29.64 "Hg10 mi
4:58 PM41 °FPartly cloudy.5 mph41%29.63 "Hg10 mi
3:58 PM43 °FPartly sunny.8 mph37%29.65 "Hg10 mi
2:58 PM51 °FPartly sunny.5 mph26%29.66 "Hg10 mi
1:58 PM50 °FBroken clouds.8 mph27%29.68 "Hg10 mi
12:58 PM50 °FBroken clouds.8 mph26%29.70 "Hg10 mi
11:58 AM49 °FScattered clouds.9 mph25%29.75 "Hg10 mi
10:58 AM44 °FScattered clouds.9 mph27%29.83 "Hg10 mi
9:58 AM38 °FScattered clouds.10 mph30%29.87 "Hg10 mi
8:58 AM30 °FScattered clouds.10 mph37%29.93 "Hg10 mi
7:58 AM23 °FScattered clouds.9 mph44%29.96 "Hg10 mi
6:58 AM20 °FPassing clouds.10 mph48%30.00 "Hg10 mi
5:58 AM20 °FPassing clouds.12 mph47%30.01 "Hg10 mi
4:58 AM20 °FPassing clouds.13 mph47%30.04 "Hg10 mi
3:58 AM19 °FPassing clouds.13 mph51%30.03 "Hg10 mi
Weather by CustomWeather, © 2014

See weather overviewHow to use our weather pages